Location: Colonia Mina de C?rbuni
(46.1667°N, 22.7167°E)
Time: 06:04:21
(UTC+00:00)

Vanguard 3 - Pass Details

Date: 20 April 2024
Orbit: 509 x 3232 km, 33.3° (Epoch: 29 May)

Event Time Altitude Azimuth Distance (km) Brightness Sun altitude
Exits shadow 01:12:41 17° 189° (S) 4,617 10.5 -21.4°
Maximum altitude 01:19:02 23° 158° (SSE) 3,669 10.2 -20.6°
Drops below altitude 10° 01:26:39 10° 112° (ESE) 3,823 10.9 -19.7°
Sets 01:30:02 0° 97° (E) 4,413 11.5 -19.3°
